• In Österreich
  • Länderverzeichnis
  • Für 7 Tage
  • Wassertemperatur
  • Satellitenkarten
  • Wetterkarte
  • News
  • Widgets
  • user-avatar
    Anmelden

    Stündliche Wetter Sölden

    Heute, 25 Februar, Sonntag

    Zeit Temperatur Niederschläge Wind Luftdruck Luftfeuchtigkeit
    00:00 -10°C° 0,1 mm 1 m/S 574 mmHg 88%
    01:00 -11°C° 0,1 mm 1 m/S 574 mmHg 87%
    02:00 -11°C° 0,1 mm 1 m/S 574 mmHg 87%
    03:00 -12°C° 0,1 mm 1 m/S 574 mmHg 86%
    04:00 -12°C° 0,1 mm 1 m/S 573 mmHg 86%
    05:00 -12°C° 0,1 mm 1 m/S 573 mmHg 86%
    06:00 -13°C° 0,1 mm 1 m/S 573 mmHg 86%
    07:00 -13°C° 0,1 mm 1 m/S 573 mmHg 86%
    08:00 -12°C° 0,1 mm 1 m/S 574 mmHg 83%
    09:00 -11°C° 0,1 mm 1 m/S 574 mmHg 80%
    10:00 -12°C° 0,1 mm 2 m/S 575 mmHg 77%
    11:00 -12°C° 0,1 mm 2 m/S 575 mmHg 75%
    12:00 -10°C° 0,1 mm 2 m/S 575 mmHg 74%
    13:00 -10°C° 0,1 mm 2 m/S 575 mmHg 72%
    14:00 -12°C° 0,1 mm 2 m/S 575 mmHg 73%
    15:00 -12°C° 0,1 mm 2 m/S 574 mmHg 75%
    16:00 -13°C° 0,1 mm 2 m/S 574 mmHg 76%
    17:00 -15°C° 0,1 mm 2 m/S 573 mmHg 80%
    18:00 -17°C° 0,1 mm 2 m/S 572 mmHg 84%
    19:00 -19°C° 0,1 mm 2 m/S 572 mmHg 88%
    20:00 -20°C° 0 mm 2 m/S 571 mmHg 87%
    21:00 -19°C° 0 mm 1 m/S 571 mmHg 86%
    22:00 -20°C° 0 mm 1 m/S 571 mmHg 85%
    23:00 -20°C° 0 mm 1 m/S 570 mmHg 83%

    Morgen, 26 Februar, Montag

    Zeit Temperatur Niederschläge Wind Luftdruck Luftfeuchtigkeit
    00:00 -21°C° 0 mm 1 m/S 570 mmHg 81%
    01:00 -22°C° 0 mm 1 m/S 570 mmHg 79%
    02:00 -22°C° 0 mm 1 m/S 569 mmHg 79%
    03:00 -22°C° 0 mm 1 m/S 569 mmHg 78%
    04:00 -23°C° 0 mm 1 m/S 569 mmHg 77%
    05:00 -23°C° 0 mm 1 m/S 568 mmHg 76%
    06:00 -24°C° 0 mm 1 m/S 568 mmHg 76%
    07:00 -24°C° 0 mm 1 m/S 568 mmHg 76%
    08:00 -25°C° 0 mm 2 m/S 569 mmHg 71%
    09:00 -23°C° 0 mm 2 m/S 570 mmHg 67%
    10:00 -20°C° 0 mm 2 m/S 571 mmHg 63%
    11:00 -19°C° 0 mm 2 m/S 571 mmHg 61%
    12:00 -18°C° 0 mm 2 m/S 571 mmHg 60%
    13:00 -17°C° 0 mm 2 m/S 571 mmHg 58%
    14:00 -17°C° 0 mm 2 m/S 571 mmHg 61%
    15:00 -18°C° 0 mm 2 m/S 571 mmHg 64%
    16:00 -18°C° 0 mm 2 m/S 571 mmHg 67%
    17:00 -20°C° 0 mm 2 m/S 570 mmHg 72%
    18:00 -21°C° 0 mm 2 m/S 569 mmHg 76%
    19:00 -24°C° 0 mm 2 m/S 569 mmHg 81%
    20:00 -25°C° 0 mm 2 m/S 568 mmHg 81%
    21:00 -26°C° 0 mm 2 m/S 568 mmHg 81%
    22:00 -24°C° 0 mm 1 m/S 568 mmHg 80%
    23:00 -24°C° 0 mm 1 m/S 567 mmHg 79%

    übermorgen, 27 Februar, Dienstag

    Zeit Temperatur Niederschläge Wind Luftdruck Luftfeuchtigkeit
    00:00 -25°C° 0 mm 1 m/S 567 mmHg 78%
    01:00 -25°C° 0 mm 1 m/S 567 mmHg 77%
    02:00 -25°C° 0 mm 1 m/S 566 mmHg 76%
    03:00 -25°C° 0 mm 1 m/S 566 mmHg 76%
    04:00 -25°C° 0 mm 1 m/S 566 mmHg 75%
    05:00 -27°C° 0 mm 1 m/S 566 mmHg 74%
    06:00 -27°C° 0 mm 1 m/S 566 mmHg 74%
    07:00 -27°C° 0 mm 1 m/S 566 mmHg 74%
    08:00 -23°C° 0 mm 1 m/S 567 mmHg 68%
    09:00 -21°C° 0 mm 1 m/S 568 mmHg 63%
    10:00 -19°C° 0 mm 1 m/S 569 mmHg 57%
    11:00 -18°C° 0 mm 1 m/S 569 mmHg 56%
    12:00 -17°C° 0 mm 1 m/S 570 mmHg 54%
    13:00 -16°C° 0 mm 1 m/S 570 mmHg 52%
    14:00 -16°C° 0 mm 1 m/S 570 mmHg 56%
    15:00 -16°C° 0 mm 1 m/S 570 mmHg 60%
    16:00 -16°C° 0 mm 1 m/S 570 mmHg 64%
    17:00 -17°C° 0,1 mm 1 m/S 569 mmHg 70%
    18:00 -19°C° 0,1 mm 1 m/S 569 mmHg 76%
    19:00 -20°C° 0,1 mm 0 m/S 568 mmHg 82%
    20:00 -21°C° 0 mm 0 m/S 568 mmHg 82%
    21:00 -21°C° 0 mm 1 m/S 568 mmHg 83%
    22:00 -22°C° 0 mm 1 m/S 569 mmHg 83%
    23:00 -22°C° 0 mm 1 m/S 569 mmHg 83%

    28 Februar, Mittwoch

    Zeit Temperatur Niederschläge Wind Luftdruck Luftfeuchtigkeit
    00:00 -22°C° 0 mm 1 m/S 569 mmHg 83%
    01:00 -22°C° 0 mm 1 m/S 569 mmHg 83%
    02:00 -22°C° 0 mm 1 m/S 568 mmHg 83%
    03:00 -23°C° 0 mm 1 m/S 568 mmHg 83%
    04:00 -23°C° 0 mm 1 m/S 568 mmHg 83%
    05:00 -23°C° 0 mm 1 m/S 568 mmHg 82%
    06:00 -23°C° 0 mm 1 m/S 569 mmHg 81%
    07:00 -23°C° 0 mm 1 m/S 569 mmHg 80%
    08:00 -21°C° 0 mm 1 m/S 570 mmHg 73%
    09:00 -18°C° 0 mm 1 m/S 571 mmHg 66%
    10:00 -16°C° 0 mm 1 m/S 573 mmHg 59%
    11:00 -14°C° 0 mm 1 m/S 573 mmHg 57%
    12:00 -13°C° 0 mm 1 m/S 574 mmHg 55%
    13:00 -14°C° 0 mm 2 m/S 574 mmHg 54%
    14:00 -14°C° 0 mm 2 m/S 574 mmHg 57%
    15:00 -14°C° 0 mm 2 m/S 574 mmHg 60%
    16:00 -14°C° 0 mm 2 m/S 574 mmHg 63%
    17:00 -15°C° 0 mm 2 m/S 573 mmHg 69%
    18:00 -17°C° 0 mm 2 m/S 573 mmHg 75%
    19:00 -18°C° 0 mm 2 m/S 572 mmHg 81%
    20:00 -18°C° 0 mm 2 m/S 572 mmHg 81%
    21:00 -19°C° 0 mm 2 m/S 573 mmHg 82%
    22:00 -19°C° 0 mm 2 m/S 573 mmHg 82%
    23:00 -19°C° 0 mm 2 m/S 573 mmHg 82%

    1 März, Donnerstag

    Zeit Temperatur Niederschläge Wind Luftdruck Luftfeuchtigkeit
    00:00 -19°C° 0 mm 2 m/S 572 mmHg 82%
    01:00 -19°C° 0 mm 2 m/S 572 mmHg 81%
    02:00 -18°C° 0 mm 2 m/S 572 mmHg 81%
    03:00 -18°C° 0 mm 2 m/S 572 mmHg 80%
    04:00 -18°C° 0 mm 2 m/S 572 mmHg 79%
    05:00 -17°C° 0 mm 2 m/S 572 mmHg 79%
    06:00 -17°C° 0 mm 2 m/S 572 mmHg 79%
    07:00 -16°C° 0 mm 2 m/S 572 mmHg 80%
    08:00 -15°C° 0,1 mm 2 m/S 573 mmHg 78%
    09:00 -13°C° 0,1 mm 2 m/S 573 mmHg 77%
    10:00 -10°C° 0,1 mm 2 m/S 574 mmHg 75%
    11:00 -9°C° 0,1 mm 2 m/S 574 mmHg 76%
    12:00 -8°C° 0,1 mm 2 m/S 574 mmHg 77%
    13:00 -8°C° 0,1 mm 3 m/S 574 mmHg 77%
    14:00 -7°C° 0,1 mm 2 m/S 574 mmHg 79%
    15:00 -7°C° 0,1 mm 2 m/S 574 mmHg 80%
    16:00 -6°C° 0,1 mm 2 m/S 574 mmHg 81%
    17:00 -7°C° 0,2 mm 2 m/S 573 mmHg 84%
    18:00 -8°C° 0,2 mm 2 m/S 573 mmHg 87%
    19:00 -9°C° 0,2 mm 2 m/S 573 mmHg 90%
    20:00 -9°C° 0,1 mm 2 m/S 572 mmHg 90%
    21:00 -9°C° 0,1 mm 2 m/S 572 mmHg 90%
    22:00 -10°C° 0,1 mm 2 m/S 572 mmHg 90%
    23:00 -10°C° 0 mm 2 m/S 572 mmHg 90%

    2 März, Freitag

    Zeit Temperatur Niederschläge Wind Luftdruck Luftfeuchtigkeit
    00:00 -10°C° 0 mm 2 m/S 572 mmHg 89%
    01:00 -10°C° 0 mm 2 m/S 571 mmHg 89%
    02:00 -10°C° 0 mm 2 m/S 571 mmHg 89%
    03:00 -10°C° 0 mm 2 m/S 571 mmHg 88%
    04:00 -10°C° 0 mm 2 m/S 571 mmHg 88%
    05:00 -10°C° 0 mm 2 m/S 571 mmHg 88%
    06:00 -9°C° 0 mm 2 m/S 571 mmHg 88%
    07:00 -9°C° 0 mm 2 m/S 570 mmHg 88%
    08:00 -7°C° 0 mm 2 m/S 571 mmHg 86%
    09:00 -3°C° 0 mm 1 m/S 572 mmHg 85%
    10:00 -2°C° 0 mm 1 m/S 573 mmHg 83%
    11:00 -1°C° 0,1 mm 1 m/S 573 mmHg 83%
    12:00 0°C° 0,1 mm 1 m/S 573 mmHg 84%
    13:00 0°C° 0,1 mm 1 m/S 574 mmHg 85%
    14:00 0°C° 0,1 mm 1 m/S 574 mmHg 85%
    15:00 0°C° 0,1 mm 1 m/S 574 mmHg 86%
    16:00 0°C° 0,1 mm 1 m/S 574 mmHg 87%
    17:00 -1°C° 0,1 mm 1 m/S 573 mmHg 88%
    18:00 -2°C° 0,1 mm 1 m/S 573 mmHg 90%
    19:00 -3°C° 0,1 mm 1 m/S 573 mmHg 92%
    20:00 -4°C° 0,1 mm 1 m/S 573 mmHg 92%
    21:00 -4°C° 0,1 mm 1 m/S 573 mmHg 92%
    22:00 -4°C° 0,1 mm 1 m/S 573 mmHg 92%
    23:00 -6°C° 0 mm 1 m/S 573 mmHg 91%
    Mehr zeigen